Radiation Dose at Monitoring Post of Fukushima Daini Nuclear Power Station
Date,Time,MP-1(microSv/h),MP-2(microSv/h),MP-3(microSv/h),MP-4(microSv/h),MP-5(microSv/h),MP-6(microSv/h),MP-7(microSv/h),Wind Direction,Wind Velocity(m/s),Rain
2021/07/09,00:00,0.160,0.146,0.226,0.222,0.229,0.125,0.078,north,3.8,Yes
2021/07/09,00:10,0.158,0.146,0.228,0.222,0.228,0.124,0.079,north-northwest,3.8,Yes
2021/07/09,00:20,0.159,0.145,0.228,0.220,0.227,0.123,0.078,north-northwest,4.6,Yes
2021/07/09,00:30,0.158,0.146,0.227,0.221,0.229,0.124,0.078,north-northwest,4.8,No
2021/07/09,00:40,0.157,0.145,0.228,0.220,0.226,0.123,0.079,north-northwest,4.8,Yes
2021/07/09,00:50,0.159,0.145,0.226,0.221,0.227,0.123,0.079,north-northwest,4.1,Yes
2021/07/09,01:00,0.158,0.146,0.229,0.221,0.227,0.123,0.079,north-northwest,3.4,Yes
2021/07/09,01:10,0.158,0.145,0.226,0.220,0.227,0.124,0.079,west,1.1,Yes
2021/07/09,01:20,0.159,0.147,0.227,0.222,0.227,0.124,0.079,north,1.5,No
2021/07/09,01:30,0.157,0.146,0.228,0.218,0.226,0.125,0.078,north,0.9,No
2021/07/09,01:40,0.158,0.146,0.226,0.221,0.227,0.123,0.079,north-northeast,0.7,No
2021/07/09,01:50,0.159,0.146,0.229,0.220,0.228,0.124,0.079,north-northeast,1.0,No
2021/07/09,02:00,0.157,0.145,0.227,0.220,0.225,0.124,0.079,north-northwest,2.1,No
2021/07/09,02:10,0.158,0.146,0.228,0.220,0.229,0.123,0.079,north-northwest,2.4,No
2021/07/09,02:20,0.158,0.145,0.226,0.219,0.226,0.124,0.078,north-northwest,2.9,No
2021/07/09,02:30,0.158,0.145,0.225,0.221,0.226,0.122,0.078,north-northwest,3.3,No
2021/07/09,02:40,0.158,0.146,0.228,0.220,0.228,0.122,0.078,north,2.0,No
2021/07/09,02:50,0.156,0.144,0.226,0.219,0.225,0.124,0.078,north,1.8,No
2021/07/09,03:00,0.159,0.146,0.227,0.220,0.227,0.123,0.079,north-northwest,1.6,Yes
2021/07/09,03:10,0.157,0.144,0.227,0.219,0.228,0.123,0.078,north-northwest,1.9,No
2021/07/09,03:20,0.157,0.145,0.224,0.219,0.224,0.123,0.078,north-northwest,2.0,Yes
2021/07/09,03:30,0.159,0.145,0.226,0.220,0.227,0.123,0.078,north-northwest,2.3,No
2021/07/09,03:40,0.156,0.144,0.226,0.218,0.226,0.124,0.078,north-northwest,2.7,No
2021/07/09,03:50,0.156,0.145,0.225,0.221,0.225,0.123,0.078,north-northwest,1.6,No
2021/07/09,04:00,0.158,0.145,0.228,0.220,0.228,0.123,0.078,north-northwest,1.7,No
2021/07/09,04:10,0.156,0.144,0.225,0.219,0.226,0.123,0.077,north-northwest,3.7,No
2021/07/09,04:20,0.158,0.145,0.227,0.222,0.225,0.122,0.077,north-northwest,4.3,No
2021/07/09,04:30,0.157,0.143,0.227,0.219,0.228,0.123,0.078,north-northwest,3.8,No
2021/07/09,04:40,0.157,0.145,0.225,0.220,0.225,0.123,0.078,north-northwest,3.6,No
2021/07/09,04:50,0.157,0.145,0.228,0.221,0.227,0.123,0.078,north-northwest,3.7,No
2021/07/09,05:00,0.157,0.144,0.225,0.218,0.227,0.123,0.077,north-northwest,3.6,No
2021/07/09,05:10,0.157,0.146,0.227,0.221,0.224,0.123,0.078,north-northwest,4.3,Yes
2021/07/09,05:20,0.159,0.144,0.227,0.219,0.228,0.123,0.079,north-northwest,4.3,Yes
2021/07/09,05:30,0.157,0.145,0.226,0.220,0.226,0.124,0.078,north-northwest,4.0,Yes
2021/07/09,05:40,0.159,0.145,0.228,0.221,0.226,0.124,0.079,north-northwest,4.3,Yes
2021/07/09,05:50,0.159,0.145,0.226,0.219,0.228,0.123,0.078,north-northwest,4.4,No
2021/07/09,06:00,0.156,0.145,0.226,0.221,0.225,0.124,0.079,north-northwest,4.8,No
2021/07/09,06:10,0.158,0.145,0.226,0.219,0.229,0.123,0.079,north-northwest,4.2,Yes
2021/07/09,06:20,0.157,0.145,0.225,0.220,0.228,0.123,0.079,north-northwest,4.9,Yes
2021/07/09,06:30,0.159,0.146,0.229,0.223,0.226,0.125,0.081,north-northwest,4.5,Yes
2021/07/09,06:40,0.161,0.147,0.227,0.220,0.231,0.126,0.082,north-northwest,4.4,Yes
2021/07/09,06:50,0.159,0.148,0.229,0.223,0.228,0.125,0.081,north-northwest,3.1,Yes
2021/07/09,07:00,0.161,0.147,0.229,0.223,0.227,0.127,0.081,north-northwest,3.2,Yes
2021/07/09,07:10,0.160,0.148,0.228,0.222,0.231,0.127,0.083,north-northwest,2.3,Yes
2021/07/09,07:20,0.160,0.149,0.230,0.224,0.230,0.126,0.083,north,2.4,Yes
2021/07/09,07:30,0.162,0.148,0.229,0.223,0.232,0.128,0.084,north,1.8,Yes
2021/07/09,07:40,0.161,0.150,0.231,0.224,0.232,0.129,0.084,north-northeast,2.2,Yes
2021/07/09,07:50,0.161,0.148,0.231,0.224,0.228,0.128,0.085,north-northwest,1.3,Yes
2021/07/09,08:00,0.161,0.150,0.228,0.221,0.231,0.128,0.082,north-northwest,1.9,No
2021/07/09,08:10,0.159,0.148,0.229,0.223,0.230,0.126,0.082,north-northwest,2.2,Yes
2021/07/09,08:20,0.159,0.147,0.228,0.222,0.226,0.125,0.082,northwest,3.0,Yes
2021/07/09,08:30,0.159,0.148,0.228,0.219,0.230,0.125,0.080,north-northwest,2.1,No
2021/07/09,08:40,0.157,0.146,0.227,0.222,0.228,0.124,0.081,north,1.9,No
2021/07/09,08:50,0.160,0.145,0.226,0.220,0.226,0.123,0.080,north-northwest,2.3,No
2021/07/09,09:00,0.157,0.146,0.224,0.218,0.225,0.124,0.078,northwest,2.1,No
2021/07/09,09:10,0.156,0.146,0.225,0.218,0.227,0.123,0.078,north-northwest,1.4,No
2021/07/09,09:20,0.157,0.144,0.226,0.220,0.226,0.122,0.079,-,CALM,No
2021/07/09,09:30,0.157,0.144,0.224,0.219,0.225,0.122,0.078,northwest,1.5,No
2021/07/09,09:40,0.155,0.144,0.225,0.217,0.226,0.122,0.078,north,1.3,No
2021/07/09,09:50,0.156,0.144,0.226,0.219,0.227,0.122,0.077,north,1.3,Yes
2021/07/09,10:00,0.156,0.143,0.224,0.219,0.225,0.121,0.079,north-northeast,1.3,Yes
2021/07/09,10:10,0.155,0.144,0.223,0.217,0.224,0.122,0.077,north-northwest,0.7,No
2021/07/09,10:20,0.156,0.144,0.226,0.218,0.228,0.123,0.077,northwest,0.8,No
2021/07/09,10:30,0.157,0.143,0.224,0.219,0.225,0.122,0.078,north-northwest,0.7,No
2021/07/09,10:40,0.156,0.144,0.223,0.217,0.224,0.121,0.077,north,0.6,No
2021/07/09,10:50,0.153,0.143,0.226,0.217,0.223,0.121,0.077,north-northeast,0.7,No
2021/07/09,11:00,0.158,0.142,0.226,0.219,0.227,0.123,0.077,-,CALM,No
2021/07/09,11:10,0.156,0.143,0.223,0.219,0.226,0.122,0.078,west,1.0,No
2021/07/09,11:20,0.155,0.144,0.224,0.217,0.223,0.121,0.077,west-southwest,1.0,No
2021/07/09,11:30,0.155,0.143,0.226,0.219,0.223,0.122,0.077,-,CALM,No
2021/07/09,11:40,0.157,0.143,0.225,0.219,0.227,0.122,0.077,south,0.7,No
2021/07/09,11:50,0.156,0.144,0.224,0.218,0.226,0.121,0.077,south-southwest,0.9,No
2021/07/09,12:00,0.154,0.144,0.221,0.217,0.226,0.122,0.077,east-southeast,0.7,No
2021/07/09,12:10,0.156,0.142,0.225,0.215,0.224,0.121,0.077,south-southeast,1.2,No
2021/07/09,12:20,0.156,0.144,0.225,0.219,0.224,0.121,0.077,south-southeast,0.8,No
2021/07/09,12:30,0.155,0.144,0.225,0.219,0.227,0.121,0.077,south-southeast,1.5,No
2021/07/09,12:40,0.153,0.143,0.223,0.218,0.226,0.122,0.077,south-southeast,1.2,No
2021/07/09,12:50,0.156,0.143,0.222,0.216,0.224,0.122,0.076,east-southeast,1.3,No
2021/07/09,13:00,0.157,0.143,0.227,0.216,0.224,0.122,0.077,east-southeast,1.1,No
2021/07/09,13:10,0.155,0.144,0.225,0.217,0.224,0.122,0.077,east-northeast,1.4,No
2021/07/09,13:20,0.155,0.143,0.224,0.220,0.223,0.122,0.077,south-southeast,1.1,No
2021/07/09,13:30,0.154,0.143,0.223,0.219,0.224,0.121,0.077,south-southeast,1.3,No
2021/07/09,13:40,0.157,0.144,0.225,0.218,0.226,0.121,0.077,south-southeast,1.7,Yes
2021/07/09,13:50,0.157,0.144,0.228,0.217,0.227,0.123,0.078,southeast,1.5,Yes
2021/07/09,14:00,0.156,0.144,0.227,0.219,0.226,0.123,0.079,southeast,1.4,Yes
2021/07/09,14:10,0.157,0.144,0.225,0.221,0.227,0.124,0.079,southeast,0.6,No
2021/07/09,14:20,0.158,0.145,0.227,0.221,0.229,0.123,0.080,south-southeast,1.1,No
2021/07/09,14:30,0.157,0.144,0.227,0.217,0.227,0.124,0.079,south-southeast,1.5,Yes
2021/07/09,14:40,0.156,0.145,0.224,0.221,0.225,0.124,0.079,south,1.9,Yes
2021/07/09,14:50,0.158,0.146,0.226,0.221,0.227,0.124,0.081,south-southeast,2.1,Yes
2021/07/09,15:00,0.157,0.146,0.228,0.218,0.229,0.124,0.080,south,2.2,No
2021/07/09,15:10,0.156,0.144,0.225,0.220,0.225,0.124,0.079,south-southeast,1.6,No
2021/07/09,15:20,0.159,0.145,0.225,0.222,0.224,0.123,0.079,south-southeast,1.9,No
2021/07/09,15:30,0.157,0.146,0.227,0.219,0.228,0.124,0.079,southeast,1.6,No
2021/07/09,15:40,0.155,0.144,0.226,0.218,0.228,0.123,0.079,southeast,1.2,No
2021/07/09,15:50,0.156,0.144,0.223,0.221,0.225,0.121,0.078,southeast,1.5,No
2021/07/09,16:00,0.158,0.144,0.226,0.219,0.223,0.121,0.079,southeast,1.4,Yes
2021/07/09,16:10,0.157,0.145,0.227,0.219,0.227,0.124,0.078,east-southeast,1.0,Yes
2021/07/09,16:20,0.155,0.143,0.226,0.218,0.228,0.122,0.078,southeast,0.7,Yes
2021/07/09,16:30,0.157,0.144,0.225,0.221,0.225,0.122,0.078,east-southeast,0.7,No
2021/07/09,16:40,0.158,0.144,0.228,0.220,0.226,0.124,0.079,east-southeast,1.0,No
2021/07/09,16:50,0.155,0.143,0.225,0.218,0.229,0.123,0.077,east-southeast,1.6,Yes
2021/07/09,17:00,0.157,0.145,0.224,0.222,0.227,0.122,0.078,east-southeast,1.2,Yes
2021/07/09,17:10,0.159,0.145,0.227,0.221,0.223,0.123,0.079,southeast,0.8,Yes
2021/07/09,17:20,0.157,0.144,0.226,0.219,0.229,0.124,0.078,east-southeast,1.2,Yes
2021/07/09,17:30,0.157,0.146,0.227,0.222,0.228,0.123,0.079,-,CALM,Yes
2021/07/09,17:40,0.159,0.145,0.228,0.223,0.226,0.124,0.081,southeast,0.8,Yes
2021/07/09,17:50,0.159,0.145,0.229,0.220,0.229,0.124,0.080,-,CALM,Yes
2021/07/09,18:00,0.159,0.147,0.226,0.222,0.230,0.124,0.081,-,CALM,Yes
2021/07/09,18:10,0.160,0.147,0.228,0.223,0.227,0.125,0.081,-,CALM,Yes
2021/07/09,18:20,0.159,0.146,0.228,0.221,0.229,0.125,0.080,-,CALM,Yes
2021/07/09,18:30,0.158,0.147,0.226,0.223,0.229,0.124,0.081,-,CALM,Yes
2021/07/09,18:40,0.159,0.148,0.229,0.224,0.227,0.124,0.082,southeast,0.9,Yes
2021/07/09,18:50,0.159,0.148,0.228,0.222,0.228,0.125,0.080,south-southeast,1.3,Yes
2021/07/09,19:00,0.159,0.149,0.228,0.221,0.231,0.125,0.081,south,0.8,Yes
2021/07/09,19:10,0.161,0.148,0.230,0.223,0.228,0.127,0.082,south-southeast,1.3,Yes
2021/07/09,19:20,0.160,0.149,0.228,0.222,0.229,0.127,0.083,south-southeast,2.5,Yes
2021/07/09,19:30,0.159,0.149,0.228,0.222,0.231,0.126,0.083,south,1.5,Yes
2021/07/09,19:40,0.160,0.147,0.228,0.224,0.230,0.128,0.083,south,2.2,Yes
2021/07/09,19:50,0.159,0.149,0.228,0.220,0.229,0.126,0.082,south,1.8,Yes
2021/07/09,20:00,0.158,0.148,0.226,0.222,0.229,0.126,0.081,south,1.7,Yes
2021/07/09,20:10,0.160,0.146,0.227,0.223,0.227,0.124,0.082,south-southeast,1.5,Yes
2021/07/09,20:20,0.157,0.147,0.227,0.219,0.227,0.125,0.081,south,1.0,Yes
2021/07/09,20:30,0.157,0.146,0.227,0.220,0.230,0.124,0.081,south,0.8,Yes
2021/07/09,20:40,0.157,0.145,0.227,0.220,0.226,0.124,0.080,south,1.1,Yes
2021/07/09,20:50,0.156,0.146,0.224,0.219,0.226,0.124,0.079,south,0.9,Yes
2021/07/09,21:00,0.156,0.145,0.225,0.220,0.227,0.123,0.080,-,CALM,Yes
2021/07/09,21:10,0.158,0.145,0.224,0.219,0.225,0.122,0.079,south-southwest,1.1,Yes
2021/07/09,21:20,0.156,0.145,0.222,0.218,0.225,0.123,0.079,-,CALM,Yes
2021/07/09,21:30,0.155,0.144,0.226,0.219,0.227,0.122,0.079,south,1.1,Yes
2021/07/09,21:40,0.157,0.145,0.223,0.219,0.226,0.122,0.079,-,CALM,Yes
2021/07/09,21:50,0.155,0.145,0.222,0.218,0.225,0.122,0.078,-,CALM,Yes
2021/07/09,22:00,0.155,0.143,0.225,0.218,0.227,0.122,0.078,west-southwest,1.3,Yes
2021/07/09,22:10,0.157,0.145,0.224,0.219,0.225,0.123,0.078,northwest,3.0,Yes
2021/07/09,22:20,0.155,0.145,0.222,0.217,0.225,0.123,0.078,west-northwest,2.4,Yes
2021/07/09,22:30,0.156,0.144,0.224,0.219,0.229,0.121,0.079,west-northwest,2.1,Yes
2021/07/09,22:40,0.157,0.145,0.223,0.219,0.227,0.122,0.078,west-northwest,2.3,Yes
2021/07/09,22:50,0.155,0.145,0.224,0.217,0.224,0.122,0.079,west-northwest,1.7,Yes
2021/07/09,23:00,0.156,0.144,0.225,0.220,0.227,0.122,0.079,west-northwest,1.9,Yes
2021/07/09,23:10,0.156,0.145,0.224,0.217,0.225,0.122,0.078,west-northwest,1.0,Yes
2021/07/09,23:20,0.156,0.145,0.224,0.216,0.225,0.122,0.079,northwest,1.2,Yes
2021/07/09,23:30,0.156,0.145,0.225,0.220,0.228,0.121,0.079,north-northwest,0.7,Yes
2021/07/09,23:40,0.157,0.145,0.224,0.218,0.227,0.122,0.079,north-northwest,1.7,No
2021/07/09,23:50,0.155,0.143,0.223,0.217,0.224,0.123,0.079,north-northwest,2.9,No
